Regional Weather Roundup
Issued by NWS

Home | Current Version | Previous Version | Graphics & Text | Print | Product List | Glossary On
Versions: 1 2 3 4 5 6 7 8 9 10 11 12 13 14 15 16 17 18 19 20 21 22 23 24 25 26 27 28 29 30 31 32 33 34 35 36 37 38 39 40 41 42 43 44 45 46 47 48 49 50
000
ASUS43 KBIS 281702
RWRND

NORTH DAKOTA REGIONAL WEATHER ROUNDUP
NATIONAL WEATHER SERVICE BISMARCK ND
1200 PM CDT WED JUN 28 2017

NOTE: "FAIR" INDICATES FEW OR NO CLOUDS BELOW 12,000 FEET WITH NO
SIGNIFICANT WEATHER AND/OR OBSTRUCTIONS TO VISIBILITY.


NDZ001>003-009>011-017-281800-
NORTHWEST NORTH DAKOTA

CITY           SKY/WX    TMP DP  RH WIND       PRES   REMARKS
WILLISTON      SUNNY     77  37  23 N8G17     29.73F
MINOT          SUNNY     73  45  36 NW17G24   29.66R
MINOT AFB      SUNNY     72  45  38 N15       29.65R
$$

NDZ018>021-031>035-040>046-281800-
SOUTHWEST NORTH DAKOTA

CITY           SKY/WX    TMP DP  RH WIND       PRES   REMARKS
BISMARCK       SUNNY     75  46  35 W16G22    29.67R
DICKINSON      SUNNY     74  30  19 NW16G23   29.73S HAZE
GARRISON         N/A     73  42  32 N18G28    29.66F
HETTINGER ARPT SUNNY     76  37  24 NW15G22   29.76S
$$

NDZ004>008-012>016-024-026-027-054-281800-
NORTHEAST NORTH DAKOTA

CITY           SKY/WX    TMP DP  RH WIND       PRES   REMARKS
GRAND FORKS    RAIN      60  60 100 NE12      29.51R FOG
GRND FRKS AFB  LGT RAIN  61  61 100 NE8       29.51S
DEVILS LAKE    CLOUDY    69  59  70 NW21      29.57S
$$

NDZ022-023-025-028>030-036>039-047>053-281800-
SOUTHEAST NORTH DAKOTA

CITY           SKY/WX    TMP DP  RH WIND       PRES   REMARKS
FARGO          CLOUDY    66  64  93 NW5       29.46S
JAMESTOWN      CLOUDY    70  61  73 NW14      29.56R
$$





USA.gov is the U.S. government's official web portal to all federal, state and local government web resources and services.